Regional Weather Roundup
Issued by NWS

Home | Current Version | Previous Version | Text Only | Print | Product List | Glossary On
Versions: 1 2 3 4 5 6 7 8 9 10 11 12 13 14 15 16 17 18 19 20 21 22 23 24 25 26 27 28 29 30 31 32 33 34 35 36 37 38 39 40 41 42 43 44 45 46 47 48 49 50
000
ASUS43 KBIS 291210
RWRND

NORTH DAKOTA REGIONAL WEATHER ROUNDUP
NATIONAL WEATHER SERVICE BISMARCK ND
700 AM CDT MON AUG 29 2016

NOTE: "FAIR" INDICATES FEW OR NO CLOUDS BELOW 12,000 FEET WITH NO
SIGNIFICANT WEATHER AND/OR OBSTRUCTIONS TO VISIBILITY.


NDZ001>003-009>011-017-291300-
NORTHWEST NORTH DAKOTA

CITY           SKY/WX    TMP DP  RH WIND       PRES   REMARKS
WILLISTON      CLEAR     51  44  77 N7        30.28R
6HR MIN TEMP:  51; 6HR MAX TEMP:  64;

MINOT          CLEAR     54  49  83 NW12      30.22R
MINOT AFB      CLEAR     48  46  92 W8        30.23R
$$

NDZ018>021-031>035-040>046-291300-
SOUTHWEST NORTH DAKOTA

CITY           SKY/WX    TMP DP  RH WIND       PRES   REMARKS
BISMARCK       CLEAR     61  54  77 NW3       30.16R
6HR MIN TEMP:  61; 6HR MAX TEMP:  72;

DICKINSON      CLOUDY    60  47  61 N10       30.23R
GARRISON         N/A     58  50  75 N13       30.21R
6HR MIN TEMP:  57; 6HR MAX TEMP:  68;

HETTINGER ARPT CLOUDY    63  51  65 N13       30.21S
$$

NDZ004>008-012>016-024-026-027-054-291300-
NORTHEAST NORTH DAKOTA

CITY           SKY/WX    TMP DP  RH WIND       PRES   REMARKS
GRAND FORKS    CLOUDY    67  63  87 N8        30.06S
GRND FRKS AFB  CLOUDY    64  63  95 N7        30.09R
DEVILS LAKE    CLEAR     59  56  89 N13       30.15R
$$

NDZ022-023-025-028>030-036>039-047>053-291300-
SOUTHEAST NORTH DAKOTA

CITY           SKY/WX    TMP DP  RH WIND       PRES   REMARKS
FARGO          CLOUDY    70  66  87 E8        30.07R
6HR MIN TEMP:  70; 6HR MAX TEMP:  75;

JAMESTOWN      CLEAR     66  64  93 N9        30.10R
$$





USA.gov is the U.S. government's official web portal to all federal, state and local government web resources and services.